{"data":{"norad_id":64098,"epoch":"2026-09-20T04:44:37.851648Z","epoch_age_seconds":169663,"freshness":"FRESH","line1":"1 64098U 25110C   26263.19766032  .00014431  00000+0  43735-3 0  9996","line2":"2 64098  53.1574 198.9664 0001247 100.0979 260.0164 15.34405339 75713","mean_motion":15.34405339,"eccentricity":0.0001247,"inclination_deg":53.1574,"raan_deg":198.9664,"arg_perigee_deg":100.0979,"mean_anomaly_deg":260.0164,"bstar":0.00043735,"rev_number":7571,"period_min":93.847431535821,"perigee_km":461.83432082083,"apogee_km":463.54042241912,"semimajor_km":6840.82437162,"source":"CELESTRAK","updated_at":"2026-09-21T09:00:35.226676Z"}}